NOAA 16 DEB, 41073

Orbit data source: Space-Track

NOAA 16 DEB, 41073 is space debris in SSO originally from a launch on Thu, 21 Sep 2000 UTC launched from the Air Force Western Test Range (AFWTR). Debris objects in space refer to the collection of defunct objects orbiting the Earth. Examples of debris include non-operational satellites, rocket bodies, and fragments generated from explosions, collisions, or faulty payload assembly.

Loading next visibility...
Identifier
41073, 2000-055AG
Orbit
SSO
Country
Flag of USUS
Related business
Manufacturer
Unknown
Mission
Spacecraft
Bus & Motor
Unknown
Mass
Unknown
Launch date (UTC)
2000-09-21 (25 years ago)
Launch vehicle
Unknown
Launch site
Air Force Western Test Range (AFWTR)
Object type
Payload
Rocket body
Debris
Shape & HBR
Unknown
Radar Cross Section
Small (<0.1 m²)

Expand to show TLE details & history
Last TLE update: 1 day ago

TLE from 1 day ago
0 NOAA 16 DEB
1 41073U 00055AG  25260.05575978  .00002972  00000-0  11556-2 0  9996
2 41073  98.7784   5.0916 0018516 253.3665 106.5484 14.30503694508299
Epoch: 2025-09-17T01:20Z
TLE epoch observation values (Epoch: 2025-09-17T01:20:17.645Z)
Latitude
-0.00001°
Longitude
-11.21912°
Altitude
796.778 km
Speed
7.453 km/s
True Right ascension
00h 20m 21s
True Declination
0° 00' 00"
Sunlit
Object was in full shadow at epoch
Visualization orbit readout
Latitude
Unknown
Longitude
Unknown
Altitude
Unknown
Speed
Unknown
Apparent Right ascension
Unknown
Apparent Declination
Unknown
Sunlit
N/A
Visualization observer readout
Local Sidereal Time
20:50:27
Azimuth
Unknown
Elevation
Unknown
Doppler factor
Unknown
Orbital elements
Apogee altitude
800.463 km
Perigee altitude
773.928 km
Semi-major axis
7,165.333 km
Eccentricity
0.00185
Inclination
98.7784°
RAAN
5.0916°
Arg. of periapsis
253.3665°
True anomaly
106.75165°
Mean anomaly
106.5484°
Eccentric anomaly
106.65004°
Mean motion
3.5784 °/min
Orbital period
100.6 mins
BSTAR
0.0011556
Loading maneuver chart data...
Computing Atmospheric mass density...
Loading historical data...
Loading historical data...
Loading historical data...
Loading historical data...
Loading historical data...
Loading historical data...
Loading historical data...

Documentation

Showing up to 5 results
|